Weather History for Carlsbad, NM

Change the Weather History Date:

Tuesday, February 11, 2014

  Actual Average Record
Temperature  
Mean Temperature 32 °F -  
Max Temperature 39 °F 61 °F 84 °F (1962)
Min Temperature 25 °F 31 °F 6 °F (1981)
Degree Days  
Heating Degree Days 33    
Moisture  
Dew Point 25 °F    
Average Humidity 79    
Maximum Humidity 89    
Minimum Humidity 58    
Precipitation  
Precipitation 0.00 in - - ()
Sea Level Pressure  
Sea Level Pressure 30.19 in    
Wind  
Wind Speed 6 mph (ENE)    
Max Wind Speed 12 mph    
Max Gust Speed -    
Visibility 4 miles    
Events      
Averages and records for this station are not official NWS values.
T = Trace of Precipitation, MM = Missing Value Source: NWS Daily Summary

Daily Weather History Graph

Daily Weather History Graph

Search for Another Location

Airport:

Trip Planner

Search our weather history database for the weather conditions in past years. The results will help you decide how hot, cold, wet, or windy it might be!

Date:

Astronomy

Feb. 11, 2014 Rise Set
Actual Time 6:43 AM MST 5:39 PM MST
Civil Twilight 6:18 AM MST 6:04 PM MST
Nautical Twilight 5:49 AM MST 6:33 PM MST
Astronomical Twilight 5:20 AM MST 7:02 PM MST
Moon 3:06 PM MST (2/11) 4:17 AM MST (2/11)
Length of Visible Light 11h 46m
Length of Day
10h 56m
Waxing Gibbous, 91% of the Moon is Illuminated
Feb 11
Waxing Gibbous
Feb 14
Full
Feb 22
Last Quarter
Mar 1
New
Mar 8
First Quarter

Hourly Weather History & Observations

Time (MST) Temp. Windchill Dew Point Humidity Pressure Visibility Wind Dir Wind Speed Gust Speed Precip Events Conditions
12:08 AM 30.9 °F 25.2 °F 26.1 °F 82% 30.17 in 4.0 mi ENE 5.8 mph - N/A   Haze
12:32 AM 30.0 °F 23.2 °F 26.1 °F 85% 30.18 in 2.5 mi East 6.9 mph - N/A   Overcast
12:53 AM 30.0 °F 22.4 °F 26.1 °F 85% 30.19 in 2.5 mi East 8.1 mph - N/A   Overcast
1:03 AM 28.9 °F 21.9 °F 26.1 °F 89% 30.18 in 2.5 mi ESE 6.9 mph - N/A   Overcast
1:10 AM 28.9 °F 21.9 °F 26.1 °F 89% 30.18 in 2.5 mi East 6.9 mph - N/A   Overcast
1:20 AM 28.9 °F 22.8 °F 26.1 °F 89% 30.18 in 3.0 mi ESE 5.8 mph - N/A   Overcast
1:36 AM 28.9 °F 22.8 °F 26.1 °F 89% 30.19 in 4.0 mi East 5.8 mph - N/A   Overcast
1:53 AM 28.9 °F 22.8 °F 25.0 °F 85% 30.20 in 4.0 mi East 5.8 mph - N/A   Overcast
2:07 AM 28.9 °F 22.8 °F 25.0 °F 85% 30.19 in 4.0 mi East 5.8 mph - N/A   Overcast
2:27 AM 28.9 °F 22.8 °F 24.1 °F 82% 30.19 in 4.0 mi East 5.8 mph - N/A   Haze
2:53 AM 28.9 °F 20.4 °F 23.0 °F 78% 30.20 in 5.0 mi ESE 9.2 mph - N/A   Haze
3:53 AM 28.0 °F 24.2 °F 24.1 °F 85% 30.20 in 4.0 mi SSE 3.5 mph - N/A   Overcast
4:53 AM 28.0 °F - 23.0 °F 81% 30.20 in 4.0 mi Calm Calm - N/A   Haze
5:53 AM 28.0 °F - 23.0 °F 81% 30.22 in 3.0 mi Calm Calm - N/A   Haze
6:40 AM 28.0 °F 24.2 °F 24.1 °F 85% 30.21 in 3.0 mi NW 3.5 mph - N/A   Overcast
6:53 AM 28.0 °F 24.2 °F 24.1 °F 85% 30.24 in 3.0 mi NNW 3.5 mph - N/A   Overcast
7:03 AM 28.0 °F 22.8 °F 24.1 °F 85% 30.23 in 2.5 mi NW 4.6 mph - N/A   Overcast
7:24 AM 28.9 °F 23.9 °F 24.1 °F 82% 30.23 in 2.5 mi North 4.6 mph - N/A   Haze
7:43 AM 28.9 °F 21.9 °F 24.1 °F 82% 30.23 in 3.0 mi NNW 6.9 mph - N/A   Haze
7:53 AM 28.9 °F 21.1 °F 24.1 °F 82% 30.25 in 3.0 mi North 8.1 mph - N/A   Haze
8:45 AM 30.9 °F 24.3 °F 25.0 °F 79% 30.25 in 3.0 mi North 6.9 mph - N/A   Haze
8:53 AM 30.9 °F 22.8 °F 25.0 °F 79% 30.27 in 3.0 mi NNW 9.2 mph - N/A   Haze
9:53 AM 32.0 °F 25.6 °F 25.0 °F 75% 30.28 in 4.0 mi North 6.9 mph - N/A   Haze
10:53 AM 33.1 °F 26.9 °F 26.1 °F 75% 30.27 in 3.0 mi NNW 6.9 mph - 0.00 in   Haze
11:35 AM 34.0 °F 29.8 °F 26.1 °F 73% 30.22 in 4.0 mi North 4.6 mph - N/A   Haze
11:53 AM 34.0 °F 31.0 °F 26.1 °F 73% 30.22 in 4.0 mi Variable 3.5 mph - N/A   Haze
12:53 PM 36.0 °F 31.1 °F 26.1 °F 67% 30.19 in 4.0 mi NNW 5.8 mph - N/A   Haze
1:53 PM 37.0 °F 33.3 °F 25.0 °F 62% 30.15 in 4.0 mi North 4.6 mph - N/A   Haze
2:53 PM 37.9 °F 33.5 °F 26.1 °F 62% 30.14 in 5.0 mi North 5.8 mph - N/A   Haze
3:53 PM 39.0 °F - 26.1 °F 60% 30.12 in 5.0 mi Calm Calm - N/A   Haze
4:05 PM 39.9 °F 37.8 °F 26.1 °F 58% 30.11 in 5.0 mi East 3.5 mph - N/A   Haze
4:53 PM 39.0 °F 35.7 °F 26.1 °F 60% 30.09 in 5.0 mi East 4.6 mph - N/A   Haze
5:53 PM 35.1 °F 26.9 °F 25.0 °F 67% 30.10 in 4.0 mi SSE 11.5 mph - N/A   Haze
6:53 PM 32.0 °F 25.6 °F 24.1 °F 73% 30.13 in 4.0 mi SSE 6.9 mph - N/A   Haze
7:53 PM 28.9 °F 22.8 °F 23.0 °F 78% 30.16 in 4.0 mi SSE 5.8 mph - N/A   Haze
8:53 PM 27.0 °F 18.7 °F 21.9 °F 81% 30.16 in 4.0 mi South 8.1 mph - N/A   Haze
9:53 PM 25.0 °F 17.1 °F 21.9 °F 88% 30.16 in 4.0 mi South 6.9 mph - N/A   Clear
10:53 PM 27.0 °F 18.0 °F 23.0 °F 85% 30.14 in 4.0 mi South 9.2 mph - N/A   Clear
11:53 PM 25.0 °F 18.1 °F 21.9 °F 88% 30.11 in 4.0 mi SE 5.8 mph - N/A   Clear